Regional Weather Roundup
Issued by NWS Cleveland, OH

Home | Current Version | Previous Version | Graphics & Text | Print | Product List | Glossary On
Versions: 1 2 3 4 5 6 7 8 9 10 11 12 13 14 15 16 17 18 19 20 21 22 23 24 25 26 27 28 29 30 31 32 33 34 35 36 37 38 39 40 41 42 43 44 45 46 47 48 49 50
000
ASUS41 KCLE 261502
RWRCLE
OHIO REGIONAL WEATHER ROUNDUP
NATIONAL WEATHER SERVICE CLEVELAND, OH
1000 AM EST FRI DEC 26 2014

NOTE: "FAIR" INDICATES FEW OR NO CLOUDS BELOW 12,000 FEET WITH NO
SIGNIFICANT WEATHER AND/OR OBSTRUCTIONS TO VISIBILITY.

OHZ001>008-015>018-024>027-034-035-043-044-261600-
   NORTHWEST OHIO

CITY           SKY/WX    TMP DP  RH WIND       PRES   REMARKS
DEFIANCE       SUNNY     38  32  79 S7        30.16R
FINDLAY        SUNNY     38  33  82 S14       30.17R
TOLEDO EXPRESS SUNNY     37  32  82 S9        30.15S
TOLEDO EXEC    SUNNY     38  31  76 S12       30.17R
LIMA           SUNNY     39  32  76 S13       30.16S
$$

OHZ009>014-019>023-028>033-038-089-261600-
   NORTHEAST OHIO

CITY           SKY/WX    TMP DP  RH WIND       PRES   REMARKS
CLE-HOPKINS    SUNNY     38  31  76 S10       30.23F
CLE-LAKEFRONT  SUNNY     39  30  70 S13       30.20F
CUY CO. ARPT   SUNNY     41  34  75 S16       30.21F
LORAIN-ELYRIA  SUNNY     37  32  82 S8        30.20F
ASHTABULA      SUNNY     37  31  78 S12G21    30.23S
AKRON-CANTON   MOSUNNY   37  31  78 S10       30.23S
WOOSTER        SUNNY     35  30  82 S8        30.23R WCI  29
MANSFIELD      SUNNY     37  32  82 S13       30.20S
YOUNGSTOWN     MOSUNNY   36  30  79 S10       30.24S
$$

OHZ042-051>053-060>062-070>072-077>081-261600-
  SOUTHWEST OHIO

CITY           SKY/WX    TMP DP  RH WIND       PRES   REMARKS
CINC-COVINGTON MOSUNNY   39  32  76 S10       30.24R
CINC-LUNKEN    SUNNY     34  34 100 CALM      30.28R
HAMILTON       SUNNY     37  34  89 E5        30.26R
DAYTON         MOSUNNY   38  34  85 S14       30.22R
WRIGHT-PAT AFB SUNNY     37  34  87 S10       30.23R
DAYTON GENERAL SUNNY     37  34  89 S10       30.23R
WILMINGTON     SUNNY     37  32  82 S12       30.24R
$$

OHZ036-037-039>041-045>050-054>059-063>069-073>076-082>088-261600-
  CENTRAL AND SOUTHEAST OHIO

CITY           SKY/WX    TMP DP  RH WIND       PRES   REMARKS
COLUMBUS       MOSUNNY   37  31  78 S6        30.26R
OSU AIRPORT    SUNNY     36  31  82 S8        30.24R
BOLTON FIELD   SUNNY     34  32  93 S12       30.25R WCI  25
RICKENBACK AFB NOT AVBL
NEWARK         SUNNY     37  31  78 SW6       30.25R
MARION         SUNNY     37  32  82 S17       30.22R
LANCASTER      SUNNY     38  33  82 S6        30.28R
ZANESVILLE     SUNNY     35  30  82 S10       30.27S WCI  27
NEW PHILLY     SUNNY     37  30  75 SE6       30.27S
$$


USA.gov is the U.S. government's official web portal to all federal, state and local government web resources and services.